KMFR

Medford

Airport
ICAO code
KMFR
Summary
ICAO Region
NAM
ICAO Territory
Location

Medford, Jackson County, Oregon,

Coordinates
42° 22' 27" N , 122° 52' 23" W
KCC
Airport BS
Non Avian Wildlife Hazards to Aircraft
Metar
KMFR 161353Z 00000KT 10SM CLR 03/02 A3030 RMK AO2 SLP264 T00330017

Description

Rogue Valley International-Medford Airport is a public airport located 5 km north of downtown Medford in Jackson County, Oregon, USA. In addition to Jackson County, the airport serves seven nearby counties in southwest Oregon.

Climatology

Dry-summer subtropical ”Mediterranean" climate (Köppen climate classification Csa) - characterized by hot, dry summers and mild winters. During the summer, subtropical high pressure cells dominate, making rainfall unlikely except for the occasional thunderstorm. In the winter, periodic storms bring rain (snow at higher elevations).

Runways

Designator Length Width Surface Rops
9/27 956 30 ASP Yes/Yes
14/32 2682 46 ASP Yes/Yes

Airport map

Aerial View

SKYbrary Partners:

Safety knowledge contributed by: